Location: Darmstadt
(49.8706°N, 8.6494°E)
Time: 06:41:48
(UTC+01:00)

Cosmos 2227 Rocket - Pass Details

Date: 31 October 2020
Orbit: 838 x 845 km, 71.0° (Epoch: 02 December)

Event Time Altitude Azimuth Distance (km) Brightness Sun altitude
Rises 19:04:28 0° 323° (NW) 3,408 5.9 -19.9°
Reaches altitude 10° 19:07:16 10° 311° (NW) 2,470 5.3 -20.3°
Maximum altitude 19:11:50 26° 257° (WSW) 1,614 4.4 -21.1°
Drops below altitude 10° 19:16:24 10° 203° (SSW) 2,459 4.8 -21.8°
Sets 19:19:12 0° 191° (S) 3,390 5.4 -22.3°
